FENGYUN 1C DEB, 29765

Orbit data source: Space-Track

FENGYUN 1C DEB, 29765 is space debris in SSO originally from a launch on Mon, 10 May 1999 UTC launched from the Taiyaun Space Center, China (TSC). Fengyun 1C debris stems from the Chinese weather satellite Fengyun-1C, which was intentionally destroyed by a Chinese anti-satellite missile in 2007. This event dramatically increased the amount of space debris, with thousands of trackable fragments posing hazards to satellites and human spaceflight. The Fengyun 1C debris cloud has become a focal point in discussions about space sustainability and the need for international regulations to prevent the creation of new debris.

Loading next visibility...
Identifier
29765, 1999-025BF
Orbit
SSO
Country
Flag of CNCN / PRC
Related business
Manufacturer
Unknown
Mission
Spacecraft
Bus & Motor
Unknown
Mass
Unknown
Launch date (UTC)
1999-05-10 (27 years ago)
Launch vehicle
Unknown
Launch site
Taiyaun Space Center, China (TSC)
Object type
Payload
Rocket body
Debris
Shape & HBR
Unknown shape, 0.1 m
Radar Cross Section
Medium (>0.1 m² and <1 m²)

Expand to show TLE details & history
Last TLE update: 6 days ago

TLE from 6 days ago
0 FENGYUN 1C DEB
1 29765U 99025BF  26155.30716501 -.00000133  00000-0 -58239-4 0  9996
2 29765  98.8156 172.9696 0058046 330.1011  95.3685 14.02188939991831
Epoch: 2026-06-04T07:22Z
TLE epoch observation values (Epoch: 2026-06-04T07:22:19.056Z)
Latitude
64.73356°
Longitude
150.55837°
Altitude
901.537 km
Speed
7.405 km/s
True Right ascension
10h 15m 33s
True Declination
64° 36' 11"
Sunlit
Object was in daylight at epoch
Visualization orbit readout
Latitude
Unknown
Longitude
Unknown
Altitude
Unknown
Speed
Unknown
Apparent Right ascension
Unknown
Apparent Declination
Unknown
Sunlit
N/A
Visualization observer readout
Local Sidereal Time
00:20:53
Azimuth
Unknown
Elevation
Unknown
Doppler factor
Unknown
Orbital elements
Apogee altitude
925.563 km
Perigee altitude
841.262 km
Semi-major axis
7,261.549 km
Eccentricity
0.0058
Inclination
98.8156°
RAAN
172.9696°
Arg. of periapsis
330.1011°
True anomaly
96.03028°
Mean anomaly
95.3685°
Eccentric anomaly
95.69943°
Mean motion
3.50751 °/min
Orbital period
102.64 mins
BSTAR
-0.000058239
Loading maneuver chart data...
Computing Atmospheric mass density...
Loading historical data...
Loading historical data...
Loading historical data...
Loading historical data...
Loading historical data...
Loading historical data...
Loading historical data...

Documentation

Showing up to 5 results
|